Time,TemperatureF,DewpointF,PressureIn,WindDirection,WindDirectionDegrees,WindSpeedMPH,WindSpeedGustMPH,Humidity,HourlyPrecipIn,Conditions,Clouds,dailyrainin,SoftwareType,DateUTC
2013-10-04 00:10:00,66.8,64.0,30.13,ENE,62,0.0,-999.0,89,-99.99,,,0.00,weatherlink.com 1.10,2013-10-04 05:10:00,
2013-10-04 00:40:00,65.7,63.0,30.12,ENE,62,0.0,-999.0,90,-99.99,,,0.00,weatherlink.com 1.10,2013-10-04 05:40:00,
2013-10-04 00:55:00,65.5,63.0,30.13,ENE,62,0.0,-999.0,91,-99.99,,,0.00,weatherlink.com 1.10,2013-10-04 05:55:00,
2013-10-04 01:10:00,65.1,63.0,30.13,ENE,62,0.0,-999.0,91,-99.99,,,0.00,weatherlink.com 1.10,2013-10-04 06:10:00,
2013-10-04 01:25:00,64.8,62.0,30.13,ENE,62,0.0,-999.0,91,-99.99,,,0.00,weatherlink.com 1.10,2013-10-04 06:25:00,
2013-10-04 01:40:00,64.7,62.0,30.13,ENE,62,0.0,-999.0,91,-99.99,,,0.00,weatherlink.com 1.10,2013-10-04 06:40:00,
2013-10-04 01:55:00,64.5,62.0,30.13,ENE,62,0.0,-999.0,91,-99.99,,,0.00,weatherlink.com 1.10,2013-10-04 06:55:00,
2013-10-04 02:10:00,64.9,62.0,30.12,ENE,62,0.0,-999.0,91,-99.99,,,0.00,weatherlink.com 1.10,2013-10-04 07:10:00,
2013-10-04 02:25:00,66.0,63.0,30.11,ENE,78,0.0,-999.0,91,-99.99,,,0.00,weatherlink.com 1.10,2013-10-04 07:25:00,
2013-10-04 02:40:00,66.7,63.0,30.11,ENE,78,0.0,-999.0,89,-99.99,,,0.00,weatherlink.com 1.10,2013-10-04 07:40:00,
2013-10-04 02:55:00,66.8,64.0,30.11,ENE,78,0.0,-999.0,89,-99.99,,,0.00,weatherlink.com 1.10,2013-10-04 07:55:00,
2013-10-04 03:10:00,66.8,64.0,30.11,ENE,78,0.0,-999.0,89,-99.99,,,0.00,weatherlink.com 1.10,2013-10-04 08:10:00,
2013-10-04 03:25:00,65.5,62.0,30.11,ENE,78,0.0,-999.0,89,-99.99,,,0.00,weatherlink.com 1.10,2013-10-04 08:25:00,
2013-10-04 03:40:00,64.4,62.0,30.11,ENE,78,0.0,-999.0,91,-99.99,,,0.00,weatherlink.com 1.10,2013-10-04 08:40:00,
2013-10-04 03:55:00,64.4,62.0,30.11,ENE,78,0.0,-999.0,91,-99.99,,,0.00,weatherlink.com 1.10,2013-10-04 08:55:00,
2013-10-04 04:10:00,64.4,62.0,30.11,ENE,78,0.0,-999.0,91,-99.99,,,0.00,weatherlink.com 1.10,2013-10-04 09:10:00,
2013-10-04 04:25:00,64.2,62.0,30.11,ENE,78,0.0,-999.0,92,-99.99,,,0.00,weatherlink.com 1.10,2013-10-04 09:25:00,
2013-10-04 04:40:00,64.2,62.0,30.12,ENE,78,0.0,-999.0,92,-99.99,,,0.00,weatherlink.com 1.10,2013-10-04 09:40:00,
2013-10-04 04:55:00,64.2,62.0,30.12,ENE,78,0.0,-999.0,91,-99.99,,,0.00,weatherlink.com 1.10,2013-10-04 09:55:00,
2013-10-04 05:10:00,63.8,62.0,30.12,ENE,78,0.0,-999.0,92,-99.99,,,0.00,weatherlink.com 1.10,2013-10-04 10:10:00,
2013-10-04 05:25:00,63.4,61.0,30.12,ENE,78,0.0,-999.0,91,-99.99,,,0.00,weatherlink.com 1.10,2013-10-04 10:25:00,
2013-10-04 05:40:00,63.8,62.0,30.13,ENE,78,0.0,-999.0,92,-99.99,,,0.00,weatherlink.com 1.10,2013-10-04 10:40:00,
2013-10-04 05:55:00,63.7,61.0,30.13,ENE,78,0.0,-999.0,92,-99.99,,,0.00,weatherlink.com 1.10,2013-10-04 10:55:00,
2013-10-04 06:10:00,63.5,61.0,30.14,ENE,78,0.0,-999.0,92,-99.99,,,0.00,weatherlink.com 1.10,2013-10-04 11:10:00,
2013-10-04 06:25:00,63.5,61.0,30.14,ENE,78,0.0,-999.0,91,-99.99,,,0.00,weatherlink.com 1.10,2013-10-04 11:25:00,
2013-10-04 06:40:00,63.5,61.0,30.14,ENE,78,1.0,-999.0,92,-99.99,,,0.00,weatherlink.com 1.10,2013-10-04 11:40:00,
2013-10-04 06:55:00,63.6,61.0,30.14,ENE,78,0.0,-999.0,92,-99.99,,,0.00,weatherlink.com 1.10,2013-10-04 11:55:00,
2013-10-04 07:10:00,64.0,62.0,30.15,ENE,78,0.0,-999.0,92,-99.99,,,0.00,weatherlink.com 1.10,2013-10-04 12:10:00,
2013-10-04 07:25:00,64.9,62.0,30.16,ENE,78,0.0,-999.0,91,-99.99,,,0.00,weatherlink.com 1.10,2013-10-04 12:25:00,
2013-10-04 07:40:00,65.1,63.0,30.16,ENE,78,0.0,-999.0,91,-99.99,,,0.00,weatherlink.com 1.10,2013-10-04 12:40:00,
2013-10-04 07:55:00,65.7,63.0,30.16,ENE,78,1.0,-999.0,91,-99.99,,,0.00,weatherlink.com 1.10,2013-10-04 12:55:00,
2013-10-04 08:10:00,66.5,64.0,30.17,West,265,0.0,-999.0,90,-99.99,,,0.00,weatherlink.com 1.10,2013-10-04 13:10:00,
2013-10-04 08:25:00,67.4,64.0,30.17,West,265,0.0,-999.0,89,-99.99,,,0.00,weatherlink.com 1.10,2013-10-04 13:25:00,
2013-10-04 08:40:00,68.6,65.0,30.18,SSW,196,0.0,-999.0,88,-99.99,,,0.00,weatherlink.com 1.10,2013-10-04 13:40:00,
2013-10-04 08:55:00,69.5,66.0,30.18,South,186,0.0,-999.0,87,-99.99,,,0.00,weatherlink.com 1.10,2013-10-04 13:55:00,
2013-10-04 09:10:00,70.3,66.0,30.18,SE,140,2.0,-999.0,86,-99.99,,,0.00,weatherlink.com 1.10,2013-10-04 14:10:00,
2013-10-04 09:26:00,72.2,66.0,30.18,SSE,153,2.0,-999.0,81,-99.99,,,0.00,weatherlink.com 1.10,2013-10-04 14:26:00,
2013-10-04 09:41:00,73.4,66.0,30.19,SE,132,2.0,-999.0,77,-99.99,,,0.00,weatherlink.com 1.10,2013-10-04 14:41:00,
2013-10-04 09:56:00,75.0,66.0,30.18,ESE,123,6.0,-999.0,74,-99.99,,,0.00,weatherlink.com 1.10,2013-10-04 14:56:00,
2013-10-04 10:11:00,75.6,67.0,30.18,SE,142,5.0,-999.0,75,-99.99,,,0.00,weatherlink.com 1.10,2013-10-04 15:11:00,
2013-10-04 10:26:00,76.7,67.0,30.18,SE,132,0.0,-999.0,72,-99.99,,,0.00,weatherlink.com 1.10,2013-10-04 15:26:00,
2013-10-04 10:41:00,77.0,67.0,30.18,SE,145,8.0,-999.0,71,-99.99,,,0.00,weatherlink.com 1.10,2013-10-04 15:41:00,
2013-10-04 10:56:00,77.5,67.0,30.17,SE,125,5.0,-999.0,71,-99.99,,,0.00,weatherlink.com 1.10,2013-10-04 15:56:00,
2013-10-04 11:11:00,78.3,68.0,30.17,South,171,5.0,-999.0,70,-99.99,,,0.00,weatherlink.com 1.10,2013-10-04 16:11:00,
2013-10-04 11:26:00,77.9,67.0,30.18,SSE,153,5.0,-999.0,70,-99.99,,,0.00,weatherlink.com 1.10,2013-10-04 16:26:00,
2013-10-04 11:41:00,78.4,67.0,30.17,SW,225,5.0,-999.0,69,-99.99,,,0.00,weatherlink.com 1.10,2013-10-04 16:41:00,
2013-10-04 11:56:00,78.9,68.0,30.17,SSE,152,1.0,-999.0,69,-99.99,,,0.00,weatherlink.com 1.10,2013-10-04 16:56:00,
2013-10-04 12:11:00,80.5,69.0,30.17,SSE,149,5.0,-999.0,67,-99.99,,,0.00,weatherlink.com 1.10,2013-10-04 17:11:00,
2013-10-04 12:26:00,80.1,68.0,30.16,SSW,194,0.0,-999.0,66,-99.99,,,0.00,weatherlink.com 1.10,2013-10-04 17:26:00,
2013-10-04 13:11:00,80.9,68.0,30.14,SSW,192,4.0,-999.0,64,-99.99,,,0.00,weatherlink.com 1.10,2013-10-04 18:11:00,
2013-10-04 13:26:00,80.7,68.0,30.13,ESE,113,6.0,-999.0,65,-99.99,,,0.00,weatherlink.com 1.10,2013-10-04 18:26:00,
2013-10-04 13:41:00,81.9,68.0,30.13,SE,133,2.0,-999.0,63,-99.99,,,0.00,weatherlink.com 1.10,2013-10-04 18:41:00,
2013-10-04 13:56:00,81.7,67.0,30.13,East,98,2.0,-999.0,62,-99.99,,,0.00,weatherlink.com 1.10,2013-10-04 18:56:00,
2013-10-04 14:11:00,82.1,66.0,30.12,SE,136,5.0,-999.0,59,-99.99,,,0.00,weatherlink.com 1.10,2013-10-04 19:11:00,
2013-10-04 14:26:00,81.8,66.0,30.12,South,171,5.0,-999.0,60,-99.99,,,0.00,weatherlink.com 1.10,2013-10-04 19:26:00,
2013-10-04 14:41:00,82.5,67.0,30.12,SSW,194,9.0,-999.0,59,-99.99,,,0.00,weatherlink.com 1.10,2013-10-04 19:41:00,
2013-10-04 14:56:00,83.2,68.0,30.12,SE,142,4.0,-999.0,60,-99.99,,,0.00,weatherlink.com 1.10,2013-10-04 19:56:00,
2013-10-04 15:11:00,81.8,67.0,30.11,SE,124,0.0,-999.0,62,-99.99,,,0.00,weatherlink.com 1.10,2013-10-04 20:11:00,
2013-10-04 15:26:00,81.6,68.0,30.11,ESE,123,5.0,-999.0,63,-99.99,,,0.00,weatherlink.com 1.10,2013-10-04 20:26:00,
2013-10-04 15:41:00,82.3,68.0,30.11,ESE,110,2.0,-999.0,62,-99.99,,,0.00,weatherlink.com 1.10,2013-10-04 20:41:00,
2013-10-04 15:56:00,82.8,67.0,30.11,SE,140,5.0,-999.0,60,-99.99,,,0.00,weatherlink.com 1.10,2013-10-04 20:56:00,
2013-10-04 16:11:00,82.4,67.0,30.11,ENE,69,2.0,-999.0,60,-99.99,,,0.00,weatherlink.com 1.10,2013-10-04 21:11:00,
2013-10-04 16:26:00,82.2,67.0,30.11,SSE,155,5.0,-999.0,61,-99.99,,,0.00,weatherlink.com 1.10,2013-10-04 21:26:00,
2013-10-04 16:41:00,81.1,68.0,30.11,SE,136,0.0,-999.0,65,-99.99,,,0.00,weatherlink.com 1.10,2013-10-04 21:41:00,
2013-10-04 16:56:00,80.8,68.0,30.11,SSE,150,2.0,-999.0,65,-99.99,,,0.00,weatherlink.com 1.10,2013-10-04 21:56:00,
2013-10-04 17:11:00,81.4,68.0,30.11,South,169,0.0,-999.0,64,-99.99,,,0.00,weatherlink.com 1.10,2013-10-04 22:11:00,
2013-10-04 17:26:00,81.8,68.0,30.11,SSE,158,1.0,-999.0,63,-99.99,,,0.00,weatherlink.com 1.10,2013-10-04 22:26:00,
2013-10-04 17:41:00,81.2,68.0,30.11,SSE,159,0.0,-999.0,65,-99.99,,,0.00,weatherlink.com 1.10,2013-10-04 22:41:00,
2013-10-04 17:56:00,80.4,68.0,30.11,SSE,159,0.0,-999.0,67,-99.99,,,0.00,weatherlink.com 1.10,2013-10-04 22:56:00,
2013-10-04 18:11:00,79.4,68.0,30.11,SSE,159,0.0,-999.0,69,-99.99,,,0.00,weatherlink.com 1.10,2013-10-04 23:11:00,
2013-10-04 18:26:00,78.4,69.0,30.11,SSE,159,0.0,-999.0,72,-99.99,,,0.00,weatherlink.com 1.10,2013-10-04 23:26:00,
2013-10-04 18:41:00,77.4,68.0,30.11,SSE,159,2.0,-999.0,73,-99.99,,,0.00,weatherlink.com 1.10,2013-10-04 23:41:00,
2013-10-04 18:56:00,76.8,68.0,30.11,ESE,116,0.0,-999.0,74,-99.99,,,0.00,weatherlink.com 1.10,2013-10-04 23:56:00,
2013-10-04 19:11:00,76.4,67.0,30.11,ESE,105,4.0,-999.0,73,-99.99,,,0.00,weatherlink.com 1.10,2013-10-05 00:11:00,
2013-10-04 19:26:00,76.4,67.0,30.12,ESE,108,1.0,-999.0,73,-99.99,,,0.00,weatherlink.com 1.10,2013-10-05 00:26:00,
2013-10-04 19:41:00,75.7,67.0,30.12,ESE,108,0.0,-999.0,75,-99.99,,,0.00,weatherlink.com 1.10,2013-10-05 00:41:00,
2013-10-04 19:56:00,74.8,67.0,30.13,ESE,108,0.0,-999.0,77,-99.99,,,0.00,weatherlink.com 1.10,2013-10-05 00:56:00,
2013-10-04 20:11:00,73.8,68.0,30.13,ESE,108,0.0,-999.0,81,-99.99,,,0.00,weatherlink.com 1.10,2013-10-05 01:11:00,
2013-10-04 20:26:00,73.8,67.0,30.13,ESE,108,0.0,-999.0,78,-99.99,,,0.00,weatherlink.com 1.10,2013-10-05 01:26:00,
2013-10-04 20:41:00,73.9,67.0,30.13,ESE,108,0.0,-999.0,78,-99.99,,,0.00,weatherlink.com 1.10,2013-10-05 01:41:00,
2013-10-04 20:56:00,73.5,67.0,30.14,ESE,108,0.0,-999.0,79,-99.99,,,0.00,weatherlink.com 1.10,2013-10-05 01:56:00,
2013-10-04 21:11:00,72.9,67.0,30.14,ESE,108,4.0,-999.0,81,-99.99,,,0.00,weatherlink.com 1.10,2013-10-05 02:11:00,
2013-10-04 21:26:00,72.9,66.0,30.14,ESE,108,4.0,-999.0,80,-99.99,,,0.00,weatherlink.com 1.10,2013-10-05 02:26:00,
2013-10-04 21:41:00,72.3,66.0,30.14,ESE,108,0.0,-999.0,81,-99.99,,,0.00,weatherlink.com 1.10,2013-10-05 02:41:00,
2013-10-04 21:56:00,71.7,66.0,30.14,ESE,108,0.0,-999.0,82,-99.99,,,0.00,weatherlink.com 1.10,2013-10-05 02:56:00,
2013-10-04 22:11:00,71.4,66.0,30.14,ESE,108,0.0,-999.0,83,-99.99,,,0.00,weatherlink.com 1.10,2013-10-05 03:11:00,
2013-10-04 22:26:00,71.4,66.0,30.14,ESE,108,0.0,-999.0,84,-99.99,,,0.00,weatherlink.com 1.10,2013-10-05 03:26:00,
2013-10-04 22:41:00,70.1,66.0,30.14,ESE,108,0.0,-999.0,86,-99.99,,,0.00,weatherlink.com 1.10,2013-10-05 03:41:00,
2013-10-04 22:56:00,69.2,66.0,30.14,ESE,108,0.0,-999.0,88,-99.99,,,0.00,weatherlink.com 1.10,2013-10-05 03:56:00,
2013-10-04 23:11:00,69.3,66.0,30.14,ESE,108,0.0,-999.0,88,-99.99,,,0.00,weatherlink.com 1.10,2013-10-05 04:11:00,
2013-10-04 23:26:00,69.5,66.0,30.13,ESE,108,0.0,-999.0,87,-99.99,,,0.00,weatherlink.com 1.10,2013-10-05 04:26:00,
2013-10-04 23:41:00,69.4,66.0,30.13,ESE,108,0.0,-999.0,88,-99.99,,,0.00,weatherlink.com 1.10,2013-10-05 04:41:00,
2013-10-04 23:57:00,69.8,66.0,30.13,ESE,108,0.0,-999.0,87,-99.99,,,0.00,weatherlink.com 1.10,2013-10-05 04:57:00,